Flag for U.S.A. Weather past 2 weeks in Winston-Salem, North Carolina, U.S.A.

Now
71 °F

Fog.


Feels Like: 65 °F
Forecast: 72 / 87 °F
Wind: No wind

Location: Smith Reynolds Airport

Current Time: Jul 28, 2015 at 7:28:55 AM

Latest Report: Jul 28, 2015 at 6:54 AM


Visibility: 6 mi

Pressure: 30.01 "Hg

Humidity: 96%

Dew point: 70 °F

Location of Winston-SalemLocation

Historic Weather in Winston-Salem — Graph

°F

Winston-Salem temperature yesterday

Maximum temperature yesterday: 88 °F (at 3:54 PM)
Minimum temperature yesterday: 70 °F (at 5:54 AM)
Average temperature yesterday: 79 °F

Past Weeks' High & Low Weather Summary

 TemperatureHumidityPressure
High93 °F (Jul 13, 3:54 PM)97% (Jul 24, 3:54 AM)30.11 "Hg (Jul 24, 3:54 AM)
Low67 °F (Jul 25, 6:54 AM)22% (Jul 14, 4:54 PM)29.63 "Hg (Jul 14, 5:54 PM)
Average79 °F69%29.91 "Hg
* Reported Jul 13 5:54 AM — Jul 28 5:54 AM, Winston-Salem, Weather by CustomWeather, © 2015

Note: Actual official high and low records may vary slightly from our data, if they occured in-between our weather recording intervals... More about our weather records

Advertising

Winston-Salem weather history for previous 24 hours

 ConditionsComfort  
Time TempWeatherWind HumidityBarometerVisibility
5:54 AM
Tue, Jul 28
71 °FClear.3 mph96%29.98 "Hg7 mi
4:54 AM72 °FClear.No wind93%29.99 "Hg10 mi
3:54 AM73 °FClear.No wind90%29.98 "Hg10 mi
2:54 AM74 °FPassing clouds.No wind88%30.00 "Hg10 mi
1:54 AM75 °FPassing clouds.5 mph82%30.02 "Hg10 mi
12:54 AM75 °FPassing clouds.3 mph79%30.01 "Hg10 mi
11:54 PM
Mon, Jul 27
75 °FPassing clouds.No wind82%30.00 "Hg10 mi
10:54 PM76 °FPassing clouds.3 mph77%29.99 "Hg10 mi
9:54 PM77 °FPassing clouds.6 mph74%30.00 "Hg10 mi
8:54 PM77 °FOvercast.8 mph77%29.98 "Hg10 mi
7:54 PM78 °FPassing clouds.8 mph76%29.97 "Hg10 mi
6:54 PM88 °FPartly sunny.6 mph54%29.94 "Hg10 mi
5:54 PM88 °FPartly sunny.7 mph52%29.94 "Hg10 mi
4:54 PM88 °FSunny.N/A50%29.94 "Hg10 mi
3:54 PM88 °FPassing clouds.6 mph50%29.96 "Hg10 mi
2:54 PM87 °FPartly sunny.5 mph48%29.98 "Hg10 mi
1:54 PM87 °FSunny.7 mph51%29.99 "Hg10 mi
12:54 PM85 °FSunny.No wind55%30.01 "Hg10 mi
11:54 AM83 °FPartly sunny.6 mph57%30.02 "Hg10 mi
10:54 AM81 °FPartly sunny.5 mph62%30.02 "Hg10 mi
9:54 AM79 °FScattered clouds.6 mph69%30.02 "Hg10 mi
8:54 AM77 °FPassing clouds.3 mph77%30.02 "Hg10 mi
7:54 AM75 °FPassing clouds.6 mph79%30.01 "Hg10 mi
Weather by CustomWeather, © 2015

See weather overviewHow to use our weather pages